Flag for Germany Weather past 2 weeks in Ratingen, North Rhine-Westphalia, Germany

Now
54 °F

Clear.


Feels Like: 53 °F
Forecast: 44 / 62 °F
Wind: 5 mph from Northwest

Location: Duesseldorf

Current Time: Sep 22, 2014 at 11:10:26 PM

Latest Report: Sep 22, 2014 at 10:20 PM


Visibility: 10 mi

Pressure: 30.15 "Hg

Humidity: 77%

Dew point: 46 °F

Location of RatingenLocation

Historic Weather in Ratingen — Graph

°F

Ratingen temperature yesterday

Maximum temperature yesterday: 66 °F (at 3:50 PM)
Minimum temperature yesterday: 55 °F (at 10:20 PM)
Average temperature yesterday: 62 °F

Past Weeks' High & Low Weather Summary

 TemperatureHumidityPressure
High77 °F (Sep 17, 2:20 PM)100% (Sep 8, 6:50 AM)30.24 "Hg (Sep 8, 6:50 AM)
Low46 °F (Sep 12, 5:50 AM)46% (Sep 11, 4:50 PM)29.83 "Hg (Sep 18, 4:50 AM)
Average62 °F78%30.04 "Hg
* Reported Sep 7 9:20 PM — Sep 22 9:50 PM, Ratingen, Weather by CustomWeather, © 2014

Note: Actual official high and low records may vary slightly from our data, if they occured in-between our weather recording intervals... More about our weather records

Advertising

Ratingen weather history for previous 24 hours

 ConditionsComfort  
Time TempWeatherWind HumidityBarometerVisibility
9:50 PM
Sep 22
54 °FClear.7 mph77%30.18 "Hg10 mi
9:20 PM55 °FClear.6 mph72%30.18 "Hg10 mi
8:50 PM55 °FClear.8 mph72%30.15 "Hg10 mi
8:20 PM57 °FSunny.9 mph67%30.15 "Hg10 mi
7:50 PM57 °FPassing clouds.8 mph67%30.15 "HgN/A
7:20 PM59 °FScattered clouds.12 mph63%30.12 "HgN/A
6:50 PM59 °FPassing clouds.9 mph63%30.12 "HgN/A
6:20 PM61 °FPassing clouds.9 mph52%30.12 "HgN/A
5:50 PM61 °FPassing clouds.13 mph55%30.12 "HgN/A
5:20 PM61 °FScattered clouds.14 mph55%30.12 "HgN/A
4:50 PM61 °FPassing clouds.15 mph55%30.09 "HgN/A
4:20 PM61 °FScattered clouds.16 mph59%30.09 "HgN/A
3:50 PM61 °FPassing clouds.15 mph55%30.12 "HgN/A
3:20 PM61 °FPassing clouds.16 mph55%30.09 "HgN/A
2:50 PM57 °FPassing clouds.12 mph72%30.09 "HgN/A
2:20 PM54 °FPassing clouds.9 mph82%30.09 "HgN/A
1:50 PM52 °FRain showers. Partly sunny.23 mph82%30.12 "Hg5 mi
1:20 PM59 °FScattered clouds.15 mph68%30.09 "HgN/A
12:50 PM55 °FRain showers. Broken clouds.20 mph77%30.09 "Hg4 mi
12:20 PM59 °FPartly sunny.17 mph59%30.09 "HgN/A
11:50 AM59 °FPartly sunny.14 mph68%30.09 "HgN/A
11:20 AM57 °FPartly sunny.14 mph67%30.09 "HgN/A
10:50 AM57 °FPartly sunny.14 mph67%30.09 "HgN/A
10:20 AM57 °FPartly sunny.12 mph67%30.09 "HgN/A
9:50 AM55 °FPartly sunny.10 mph77%30.09 "HgN/A
9:20 AM55 °FPartly sunny.8 mph72%30.09 "HgN/A
8:50 AM55 °FLight rain. Broken clouds.9 mph72%30.09 "HgN/A
8:20 AM54 °FSunny.9 mph77%30.09 "Hg10 mi
7:50 AM54 °FClear.8 mph77%30.09 "Hg10 mi
7:20 AM55 °FClear.9 mph77%30.09 "Hg10 mi
6:50 AM54 °FPassing clouds.9 mph82%30.09 "HgN/A
6:20 AM54 °FPassing clouds.9 mph82%30.09 "HgN/A
5:50 AM54 °FClear.8 mph82%30.09 "Hg10 mi
5:20 AM52 °FClear.7 mph88%30.12 "Hg10 mi
4:50 AM52 °FClear.8 mph88%30.12 "Hg10 mi
4:20 AM54 °FClear.8 mph88%30.12 "Hg10 mi
3:50 AM54 °FClear.7 mph94%30.12 "Hg10 mi
3:20 AM55 °FClear.8 mph88%30.12 "Hg10 mi
2:50 AM55 °FClear.7 mph88%30.12 "Hg10 mi
2:20 AM55 °FPassing clouds.6 mph88%30.12 "HgN/A
1:50 AM55 °FPassing clouds.8 mph88%30.12 "HgN/A
1:20 AM55 °FPartly cloudy.6 mph88%30.12 "HgN/A
12:50 AM55 °FClear.7 mph82%30.12 "Hg10 mi
12:20 AM55 °FPartly cloudy.7 mph82%30.12 "HgN/A
11:50 PM
Sep 21
55 °FPassing clouds.7 mph82%30.12 "HgN/A
11:20 PM55 °FPassing clouds.7 mph82%30.09 "HgN/A
Weather by CustomWeather, © 2014

See weather overviewHow to use our weather pages